sat.trackr.live / text

‹ back to catalog

STARLINK-36821

NORAD 67880 · 2026-035B

PAYLOAD ACTIVE UNKNOWN

§ Identity

Operator
Country
US
Launch date
2026-02-21
Launch site
AFWTR
Launch vehicle
Mass (kg)
RCS (m²)

Purposes: comms

External: N2YO · Heavens-Above · Gunter

§ Orbital elements

Epoch: 2026-05-24T18:29:27.827808Z

Period
93.91 min
Inclination
97.2858°
Eccentricity
0.0002031
Mean motion
15.33458339 rev/d
Perigee alt
464.1 km
Apogee alt
466.9 km
Semi-major
6,843.6 km
B*
8.7557e-4
RAAN
78.2398°
Arg perigee
93.4909°
Mean anomaly
266.6566°
Rev number
1,564

§ Raw data

STARLINK-368211 67880U 26035B   26144.77046097  .00028311  00000+0  87557-3 0  99912 67880  97.2858  78.2398 0002031  93.4909 266.6566 15.33458339 15644

JSON: /api/v1/satellites/67880 · /tle

For live sub-satellite position, see the globe view (requires WebGL).

§ Visibility from observer

Set your observer location to see the next 7 days of passes ≥ 10°. The values pass through the URL so the page stays shareable.

No JS? Fill the form by hand. The geolocation button needs JavaScript.